[[{"header":{"parameterUnit":"m.s-1","parameterCategory":1,"la1":30.2991,"la2":30.254,"lo1":-89.0895,"lo2":-89.0444,"dy":0.0017,"dx":0.0017,"nx":28,"ny":28,"refTime":"2023-09-17T03:00:00:Z","depth":0,"parameterNumber":2,"parameterNumberName":"U-component_of_WINDS"},"data":[0,0,0,0,0,0,0,0,0,0,0,0,0,0,0,0,0,0,0,0,0,0,0,0,0,0,0,0,0,0,0,0,0,0,0,0,0,0,0,0,0,0,0,0,0,0,0,0,0,0,0,0,0,0,0,0,0,0,0.1974,0.1974,0,0.1992,0.1992,0.1992,0.2024,0.2024,0.2025,0.2025,0.2044,0.2044,0.2044,0,0,0,0,0,0,0,0,0,0,0,0,0,0.1968,0.1968,0.1974,0.1974,0.1974,0.1992,0.1992,0.1992,0.2023,0.2024,0.2025,0.2026,0.2044,0.2044,0.2044,0,0,0,0,0,0,0,0,0,0,0,0,0,0.1977,0.1968,0.1974,0.1992,0.1994,0.1992,0.1992,0.1993,0.2023,0.2024,0.2025,0.2026,0.2044,0.2044,0.2044,0.2026,0,0,0.2044,0.2044,0,0,0,0,0,0,0,0,0.1976,0.1977,0.1989,0.1991,0.1993,0.2006,0.1997,0.2004,0.2023,0.2012,0.2025,0.2026,0.2031,0.2032,0.2034,0.2027,0.2028,0.2044,0.2044,0.2044,0.2044,0,0,0,0,0,0,0,0.1975,0.1976,0.1981,0.1989,0.1991,0.2,0.2002,0.1999,0.2016,0.2013,0.2015,0.2017,0.2032,0.2034,0.2034,0.2028,0.2044,0.2044,0.2044,0.2044,0.201,0.2009,0,0,0,0,0,0,0.1972,0.1976,0.1981,0.1982,0.1986,0.1999,0.2002,0.2001,0.2017,0.202,0.2016,0.2019,0.2033,0.2034,0.2035,0.2016,0.2044,0.2044,0.2044,0.2011,0.201,0.2009,0,0,0,0,0,0,0.1972,0.1972,0.198,0.1979,0.1981,0.1998,0.1998,0.2001,0.2002,0.2019,0.2023,0.2014,0.2034,0.2035,0.2029,0.2017,0.2044,0.2044,0.2012,0.201,0.2009,0.1977,0,0,0,0,0,0,0.1972,0.1972,0.1965,0.1979,0.1981,0.1972,0.1997,0.2001,0.2002,0.2005,0.2018,0.2021,0.2035,0.2029,0.2029,0.2017,0.2044,0.2013,0.2011,0.201,0.1979,0.1974,0.197,0,0,0,0,0,0.1971,0.1955,0.1964,0.1965,0.1972,0.1972,0.1973,0.1989,0.2001,0.1994,0.2005,0.2021,0.2018,0.2028,0.2028,0.2016,0.2014,0.2012,0.201,0.1981,0.1975,0.1971,0,0,0,0,0,0,0.1939,0.1957,0.1968,0.1955,0.1962,0.1977,0.1969,0.1982,0.1985,0.1988,0.2008,0.2011,0.2002,0.2009,0.2019,0.2001,0.2019,0.2016,0.1996,0.1991,0.1987,0.1985,0.2044,0,0,0,0,0,0.193,0.1928,0.1944,0.1931,0.1934,0.1951,0.1951,0.1963,0.1971,0.1973,0.1984,0.1991,0.1992,0.1992,0.1994,0.198,0.1984,0.1973,0.1969,0.1965,0.1963,0.1957,0.1953,0.2002,0.2002,0.2002,0,0,0.1912,0.1922,0.1919,0.1925,0.1931,0.1929,0.1953,0.1949,0.1948,0.1973,0.1967,0.1975,0.1985,0.1975,0.1971,0.198,0.195,0.1963,0.196,0.1959,0.1955,0.195,0.1946,0.2001,0.2001,0.2001,0,0,0.1878,0.1885,0.1876,0.1882,0.1891,0.1903,0.1901,0.1914,0.1921,0.1915,0.1935,0.1934,0.1935,0.1941,0.1944,0.1915,0.1929,0.1915,0.1893,0.1887,0.1883,0.188,0.1869,0.1865,0.1913,0.1913,0.1913,0,0.1854,0.1851,0.1869,0.1864,0.1867,0.189,0.1881,0.1887,0.1896,0.1898,0.1908,0.1911,0.1919,0.1911,0.1904,0.1906,0.1904,0.1913,0.1882,0.1879,0.1876,0.1866,0.1862,0.1911,0.1911,0.1911,0.1911,0,0.1822,0.182,0.1811,0.182,0.1822,0.1815,0.1832,0.1832,0.1844,0.1855,0.185,0.1861,0.1866,0.1865,0.1877,0.1859,0.1865,0.1878,0.1897,0.1869,0.186,0.1857,0.1908,0.1909,0.1909,0.191,0,0,0.1766,0.1786,0.1783,0.1788,0.1801,0.1799,0.1795,0.1799,0.1799,0.1805,0.1802,0.1803,0.1816,0.182,0.1833,0.1828,0.1804,0.1843,0.1843,0.1835,0.1786,0.1776,0.1771,0.1815,0.1814,0.1813,0.1786,0,0.1735,0.1727,0.1743,0.1731,0.173,0.1753,0.1749,0.1757,0.1767,0.1768,0.178,0.178,0.1797,0.18,0.1796,0.1808,0.1795,0.181,0.1812,0.1812,0.1808,0.1766,0.1755,0.1728,0.1782,0.1782,0.1781,0,0.1696,0.1701,0.1689,0.1704,0.1704,0.17,0.1706,0.1706,0.1716,0.1725,0.1729,0.1745,0.1742,0.176,0.1757,0.1767,0.1769,0.1775,0.1775,0.1775,0.1794,0.1765,0.172,0.1716,0.1776,0.1777,0.1777,0,0.1657,0.1661,0.1654,0.1657,0.1675,0.1671,0.1678,0.1689,0.1692,0.1698,0.1699,0.1705,0.1708,0.1712,0.1729,0.1741,0.1724,0.1744,0.1731,0.1731,0.1726,0.1726,0.1679,0.1727,0.1728,0.1728,0.1728,0,0.162,0.1611,0.1637,0.1632,0.1624,0.1644,0.1636,0.1645,0.1655,0.1654,0.1675,0.1673,0.1696,0.1698,0.1711,0.1707,0.1708,0.1715,0.1718,0.1712,0.1711,0.1713,0.1716,0.1727,0.1727,0.1727,0.1727,0,0.1574,0.159,0.1585,0.1602,0.1606,0.1599,0.1615,0.1612,0.1624,0.1622,0.1623,0.1643,0.1645,0.1663,0.167,0.1679,0.167,0.1677,0.1666,0.1668,0.1655,0.1656,0.1608,0.1603,0.1654,0.1654,0.1653,0,0.1549,0.1543,0.156,0.156,0.1566,0.1567,0.157,0.159,0.1592,0.1604,0.16,0.1605,0.1609,0.1613,0.1628,0.1633,0.1641,0.1624,0.1642,0.1637,0.1641,0.1641,0.1641,0.162,0.1619,0.1619,0.1618,0,0.1502,0.1511,0.1514,0.152,0.1522,0.1528,0.1535,0.1534,0.1557,0.1558,0.1561,0.1565,0.1573,0.1577,0.1586,0.1594,0.161,0.1613,0.161,0.1604,0.1598,0.1601,0.1655,0.1613,0.1614,0.1614,0.1614,0.1615,0.1466,0.1462,0.1474,0.1476,0.1484,0.149,0.1489,0.1501,0.1504,0.1512,0.1524,0.1525,0.1537,0.1551,0.1558,0.156,0.1569,0.1565,0.1564,0.1563,0.156,0.1598,0.1562,0.1562,0.1562,0.1562,0.1562,0,0.1421,0.1429,0.1432,0.1441,0.1444,0.1459,0.1468,0.1469,0.147,0.148,0.1484,0.1488,0.1493,0.1509,0.1516,0.1515,0.1522,0.1516,0.1516,0.1518,0.1551,0.1553,0.151,0.151,0.151,0.151,0.151,0.151,0.1397,0.1392,0.1402,0.1401,0.1411,0.1412,0.1416,0.1422,0.143,0.1434,0.1438,0.1449,0.1461,0.1469,0.1475,0.148,0.1481,0.1472,0.1479,0.151,0.1515,0.152,0.1521,0.1472,0.1472,0.1445,0.1445,0.1445]},{"header":{"parameterUnit":"m.s-1","parameterCategory":1,"la1":30.2991,"la2":30.254,"lo1":-89.0895,"lo2":-89.0444,"dy":0.0017,"dx":0.0017,"nx":28,"ny":28,"refTime":"2023-09-17T03:00:00:Z","depth":0,"parameterNumber":3,"parameterNumberName":"V-component_of_WINDS"},"data":[0,0,0,0,0,0,0,0,0,0,0,0,0,0,0,0,0,0,0,0,0,0,0,0,0,0,0,0,0,0,0,0,0,0,0,0,0,0,0,0,0,0,0,0,0,0,0,0,0,0,0,0,0,0,0,0,0,0,-3.1802,-3.1802,0,-3.1766,-3.1766,-3.1765,-3.1804,-3.1806,-3.1808,-3.1809,-3.1766,-3.1764,-3.1761,0,0,0,0,0,0,0,0,0,0,0,0,0,-3.19,-3.1898,-3.1802,-3.1801,-3.1801,-3.1766,-3.1766,-3.1765,-3.1804,-3.1806,-3.1808,-3.181,-3.1767,-3.1764,-3.1761,0,0,0,0,0,0,0,0,0,0,0,0,0,-3.186,-3.1897,-3.1802,-3.1817,-3.1818,-3.1766,-3.1766,-3.1765,-3.1804,-3.1806,-3.1808,-3.1811,-3.1768,-3.1764,-3.1761,-3.1691,0,0,-3.1749,-3.1747,0,0,0,0,0,0,0,0,-3.1862,-3.1856,-3.1815,-3.1815,-3.1816,-3.1792,-3.1784,-3.174,-3.1803,-3.1809,-3.1809,-3.1812,-3.1773,-3.1769,-3.1757,-3.1689,-3.1687,-3.1748,-3.1746,-3.1744,-3.1743,0,0,0,0,0,0,0,-3.1865,-3.1858,-3.1788,-3.1814,-3.1815,-3.1823,-3.182,-3.1776,-3.1778,-3.1808,-3.1811,-3.1807,-3.1773,-3.176,-3.1756,-3.1687,-3.1749,-3.1745,-3.1743,-3.1741,-3.1561,-3.1559,0,0,0,0,0,0,-3.1867,-3.186,-3.1789,-3.1786,-3.1846,-3.182,-3.1816,-3.1798,-3.1779,-3.1778,-3.1805,-3.1809,-3.1766,-3.176,-3.1754,-3.1672,-3.1745,-3.1741,-3.1739,-3.1564,-3.1561,-3.1558,0,0,0,0,0,0,-3.1869,-3.186,-3.179,-3.1824,-3.1816,-3.1816,-3.1794,-3.1796,-3.1783,-3.1776,-3.1776,-3.1791,-3.1767,-3.176,-3.1707,-3.1671,-3.1739,-3.1736,-3.1567,-3.1563,-3.156,-3.1507,0,0,0,0,0,0,-3.1871,-3.186,-3.1835,-3.1823,-3.1814,-3.1745,-3.1792,-3.1793,-3.1777,-3.1781,-3.1763,-3.1763,-3.1768,-3.1713,-3.1703,-3.1667,-3.1733,-3.157,-3.1565,-3.1561,-3.1512,-3.1502,-3.1494,0,0,0,0,0,-3.1875,-3.182,-3.1834,-3.1825,-3.1782,-3.1742,-3.1737,-3.1746,-3.1773,-3.1747,-3.1744,-3.1763,-3.1677,-3.1707,-3.1697,-3.1659,-3.1572,-3.1566,-3.1561,-3.1516,-3.1504,-3.1494,0,0,0,0,0,0,-3.1825,-3.1819,-3.1833,-3.1774,-3.1759,-3.1749,-3.1716,-3.1733,-3.1708,-3.1713,-3.1725,-3.172,-3.1665,-3.1657,-3.169,-3.1591,-3.1629,-3.1621,-3.1598,-3.1587,-3.1578,-3.158,-3.173,0,0,0,0,0,-3.1808,-3.1778,-3.1773,-3.1721,-3.1713,-3.1716,-3.1699,-3.1708,-3.1692,-3.1685,-3.1677,-3.1659,-3.1628,-3.1607,-3.1578,-3.1512,-3.1508,-3.1481,-3.1472,-3.1464,-3.1457,-3.1421,-3.1409,-3.154,-3.154,-3.154,0,0,-3.1771,-3.1764,-3.1743,-3.1711,-3.17,-3.1667,-3.171,-3.1673,-3.1649,-3.1679,-3.1629,-3.1623,-3.1603,-3.1544,-3.1517,-3.1535,-3.142,-3.1457,-3.1451,-3.1448,-3.1414,-3.1402,-3.1391,-3.1536,-3.1537,-3.1537,0,0,-3.1686,-3.1678,-3.1634,-3.1623,-3.1608,-3.161,-3.16,-3.1588,-3.1586,-3.1537,-3.1559,-3.1529,-3.1476,-3.1461,-3.1447,-3.1359,-3.1376,-3.1349,-3.13,-3.1266,-3.1255,-3.1246,-3.1214,-3.1203,-3.1342,-3.1342,-3.1342,0,-3.1641,-3.1595,-3.1609,-3.1571,-3.1556,-3.1585,-3.154,-3.1528,-3.1502,-3.149,-3.1512,-3.1447,-3.1435,-3.1373,-3.1352,-3.1339,-3.1327,-3.135,-3.1256,-3.1247,-3.1239,-3.1208,-3.1196,-3.1339,-3.1339,-3.1339,-3.134,0,-3.154,-3.1507,-3.1473,-3.1451,-3.1432,-3.1391,-3.1398,-3.1377,-3.1388,-3.1388,-3.1338,-3.1326,-3.1295,-3.1281,-3.1291,-3.122,-3.1232,-3.1255,-3.1292,-3.1223,-3.1195,-3.1183,-3.1334,-3.1335,-3.1336,-3.1337,0,0,-3.1421,-3.141,-3.1397,-3.1387,-3.1373,-3.1347,-3.1307,-3.1279,-3.1261,-3.1243,-3.1208,-3.1164,-3.1185,-3.1169,-3.1177,-3.1147,-3.1078,-3.1173,-3.1173,-3.1155,-3.0999,-3.0981,-3.0968,-3.109,-3.1088,-3.1086,-3.1,0,-3.1336,-3.1269,-3.1282,-3.1215,-3.1185,-3.1213,-3.1178,-3.1164,-3.1163,-3.1136,-3.1135,-3.1103,-3.1134,-3.1124,-3.1096,-3.1092,-3.1046,-3.1099,-3.1056,-3.1055,-3.1059,-3.0953,-3.0934,-3.0854,-3.0989,-3.0987,-3.0986,0,-3.1228,-3.1209,-3.114,-3.1132,-3.1119,-3.1088,-3.1064,-3.1038,-3.1024,-3.1025,-3.1008,-3.1023,-3.0981,-3.1021,-3.0964,-3.0999,-3.0983,-3.0979,-3.0976,-3.0971,-3.1015,-3.0944,-3.0828,-3.0816,-3.0969,-3.097,-3.0972,0,-3.1148,-3.1104,-3.1058,-3.1049,-3.1038,-3.1015,-3.1009,-3.0997,-3.098,-3.0959,-3.0948,-3.0922,-3.0907,-3.0885,-3.0892,-3.092,-3.0833,-3.0873,-3.0832,-3.0832,-3.0811,-3.0812,-3.069,-3.0802,-3.0802,-3.0803,-3.0803,0,-3.1051,-3.1007,-3.1022,-3.0993,-3.0945,-3.096,-3.0912,-3.0909,-3.0898,-3.0868,-3.089,-3.0861,-3.0872,-3.0844,-3.0848,-3.08,-3.0793,-3.0792,-3.0794,-3.079,-3.079,-3.0778,-3.0783,-3.0799,-3.08,-3.0801,-3.0801,0,-3.0952,-3.096,-3.0911,-3.0906,-3.0904,-3.0869,-3.0864,-3.0836,-3.0838,-3.08,-3.0792,-3.0794,-3.0762,-3.0767,-3.0731,-3.0734,-3.0674,-3.0682,-3.0679,-3.0681,-3.0639,-3.0643,-3.0504,-3.0486,-3.0611,-3.061,-3.0609,0,-3.0889,-3.0857,-3.0849,-3.0832,-3.0825,-3.0797,-3.0781,-3.0794,-3.0776,-3.0758,-3.0732,-3.0702,-3.0679,-3.0626,-3.0623,-3.0596,-3.0603,-3.0557,-3.0599,-3.0596,-3.0602,-3.0603,-3.06,-3.0548,-3.0546,-3.0545,-3.0544,0,-3.0777,-3.0783,-3.076,-3.0738,-3.0719,-3.0701,-3.0686,-3.067,-3.0683,-3.0661,-3.0629,-3.0612,-3.0576,-3.0546,-3.052,-3.0512,-3.0529,-3.0532,-3.052,-3.0515,-3.0514,-3.0514,-3.0655,-3.0534,-3.0535,-3.0536,-3.0536,-3.0537,-3.0693,-3.0666,-3.0657,-3.0631,-3.0622,-3.0607,-3.0582,-3.0582,-3.0557,-3.053,-3.0539,-3.0503,-3.049,-3.0458,-3.0447,-3.0419,-3.0435,-3.0419,-3.0415,-3.0411,-3.0405,-3.052,-3.0414,-3.0414,-3.0414,-3.0415,-3.0415,0,-3.0581,-3.0578,-3.0553,-3.0533,-3.0512,-3.0533,-3.0518,-3.0498,-3.0467,-3.0455,-3.0432,-3.0396,-3.0367,-3.0364,-3.0336,-3.0314,-3.0321,-3.0306,-3.0307,-3.0305,-3.0392,-3.0404,-3.0301,-3.0301,-3.0301,-3.0301,-3.0301,-3.0301,-3.0521,-3.0476,-3.0481,-3.0432,-3.0429,-3.0395,-3.0385,-3.0371,-3.0362,-3.0321,-3.0298,-3.0297,-3.0288,-3.026,-3.0234,-3.0234,-3.0222,-3.0204,-3.0206,-3.0287,-3.0299,-3.0309,-3.0321,-3.0201,-3.0201,-3.0121,-3.012,-3.012]}]]